Tracking 20083 objects as of 12-Dec-2019
HD Live streaming from Space Station
objects crossing your sky now

COSMOS 1375 DEB

Track COSMOS 1375 DEB now!
10-day predictions


NORAD ID: 18415
Int'l Code: 1982-055BE
Perigee: 951.6 km
Apogee: 1,059.9 km
Inclination: 65.8 °
Period: 105.1 minutes
Semi major axis: 7376 km
RCS: 0.0876 m2 (small)
Launch date: June 6, 1982
Source: Commonwealth of Independent States (former USSR) (CIS)
Launch site: PLESETSK MISSILE AND SPACE COMPLEX (PKMTR)

Note: This is SATELLITE DEBRIS
aabbcc
Your satellite tracking list
Your tracking list is empty




NASA's NSSDC Master Catalog

Two Line Element Set (TLE):
1 18415U 82055BE  19346.16690215  .00000016  00000-0  10679-3 0  9995
2 18415  65.8288 307.2933 0073439 195.1942 250.7267 13.70273593701122
Source of the keplerian elements: AFSPC